User: anonymous   Login
Location: Unspecified
(0.0000°N, 0.0000°E)
Time: 05:29:15
(UTC+00:00)
Language:

Hubble Space Telescope - Orbit

View from above orbital plane
View from above orbital plane
View from above satellite
View from above satellite

Ground track
Ground track

The orbit data is extracted from the following two-line orbital elements,

1 20580U 90037B   23158.56338229  .00004226  00000-0  22163-3 0  9992
2 20580  28.4707 332.0389 0002130 278.5618 129.4193 15.13201972620004
Epoch (UTC): 07 June 2023 13:31:16
Eccentricity: 0.0002130
inclination: 28.4707°
perigee height: 525 km
apogee height: 528 km
right ascension of ascending node: 332.0389°
argument of perigee: 278.5618°
revolutions per day: 15.13201972
mean anomaly at epoch: 129.4193°
orbit number at epoch: 62000

The dashed part of the orbit path shows where the satellite is in the earth's shadow,  

DLR